Green Bay, WI

3:51 AM CST on February 25, 2017 (GMT -0600)
Austin Straubel International

Weather History for KGRB - November, 2012

Change the Weather History Date:

Monday, November 5, 2012

  Actual Average Record
Temperature  
Mean Temperature 33 °F 40 °F  
Max Temperature 40 °F 48 °F 71 °F (1924)
Min Temperature 25 °F 32 °F 1 °F (1951)
Degree Days  
Heating Degree Days 32 25  
Month to date heating degree days 149 123  
Since 1 July heating degree days 941 949  
Cooling Degree Days 0 0  
Month to date cooling degree days 0 0  
Year to date cooling degree days 786 398  
Moisture  
Dew Point 25 °F    
Average Humidity 73    
Maximum Humidity 92    
Minimum Humidity 54    
Precipitation  
Precipitation T in 0.08 in 1.09 in (1896)
Month to date precipitation T 0.37  
Year to date precipitation 27.94 26.25  
Snow  
Snow T in 0.00 in 10.50 in (1896)
Month to date snowfall T 0.2  
Since 1 July snowfall T 0.4  
Since 1 September snowfall T 0.4  
Snow Depth 0.00 in    
Sea Level Pressure  
Sea Level Pressure 30.23 in    
Wind  
Wind Speed 5 mph (NNE)    
Max Wind Speed 14 mph    
Max Gust Speed 15 mph    
Visibility 10 miles    
Events      
T = Trace of Precipitation, MM = Missing Value Source: NWS Daily Summary

Daily Weather History Graph

Daily Weather History Graph

Search for Another Location

Airport or City:

Trip Planner

Search our weather history database for the weather conditions in past years. The results will help you decide how hot, cold, wet, or windy it might be!

Date:

Astronomy

Nov. 05, 2012 Rise Set
Actual Time 6:36 AM CST 4:35 PM CST
Civil Twilight 6:05 AM CST 5:06 PM CST
Nautical Twilight 5:30 AM CST 5:40 PM CST
Astronomical Twilight 4:56 AM CST 6:14 PM CST
Moon 10:13 PM CST (11/5) 11:55 AM CST (11/5)
Length of Visible Light 11h 00m
Length of Day
9h 59m
Waning Gibbous, 62% of the Moon is Illuminated
Nov 5
Waning Gibbous
Nov 6
Last Quarter
Nov 13
New
Nov 20
First Quarter
Nov 28
Full

Hourly Weather History & Observations

Time (CST) Temp. Windchill Dew Point Humidity Pressure Visibility Wind Dir Wind Speed Gust Speed Precip Events Conditions
12:40 AM 33.8 °F 27.7 °F 26.6 °F 75% 30.24 in 9.0 mi North 6.9 mph - N/A   Overcast
12:53 AM 33.1 °F 26.9 °F 27.0 °F 78% 30.27 in 9.0 mi North 6.9 mph - N/A   Overcast
1:53 AM 33.1 °F 26.1 °F 27.0 °F 78% 30.26 in 9.0 mi North 8.1 mph - 0.00 in   Overcast
2:24 AM 33.8 °F 27.7 °F 26.6 °F 75% 30.24 in 8.0 mi NNE 6.9 mph - 0.00 in   Overcast
2:48 AM 33.8 °F 26.4 °F 26.6 °F 75% 30.24 in 10.0 mi NNE 9.2 mph - 0.00 in   Overcast
2:53 AM 33.8 °F 25.8 °F 26.6 °F 75% 30.24 in 10.0 mi NNE 10.4 mph - N/A   Overcast
3:31 AM 33.8 °F 25.8 °F 26.6 °F 75% 30.24 in 10.0 mi NNE 10.4 mph - N/A   Overcast
3:53 AM 33.1 °F 25.5 °F 25.0 °F 72% 30.27 in 10.0 mi NNE 9.2 mph - N/A   Overcast
4:53 AM 32.0 °F 24.2 °F 25.0 °F 75% 30.27 in 10.0 mi North 9.2 mph - N/A   Overcast
5:18 AM 32.0 °F 24.2 °F 24.8 °F 75% 30.24 in 10.0 mi North 9.2 mph - N/A   Mostly Cloudy
5:53 AM 30.9 °F 22.2 °F 24.1 °F 76% 30.27 in 10.0 mi North 10.4 mph - N/A   Overcast
6:53 AM 32.0 °F 24.8 °F 24.1 °F 73% 30.27 in 10.0 mi North 8.1 mph - N/A   Overcast
7:53 AM 33.1 °F 26.1 °F 25.0 °F 72% 30.28 in 10.0 mi North 8.1 mph - N/A   Overcast
8:53 AM 35.1 °F 30.1 °F 25.0 °F 67% 30.29 in 10.0 mi NW 5.8 mph - N/A   Overcast
9:46 AM 35.6 °F 29.2 °F 24.8 °F 65% 30.26 in 10.0 mi NNE 8.1 mph - N/A   Overcast
9:53 AM 36.0 °F 29.0 °F 26.1 °F 67% 30.29 in 10.0 mi NE 9.2 mph - N/A   Overcast
10:53 AM 37.0 °F 33.3 °F 26.1 °F 65% 30.28 in 10.0 mi NE 4.6 mph - N/A   Overcast
11:53 AM 37.9 °F 34.4 °F 26.1 °F 62% 30.27 in 10.0 mi ENE 4.6 mph - N/A   Overcast
12:53 PM 37.9 °F 34.4 °F 26.1 °F 62% 30.24 in 10.0 mi East 4.6 mph - N/A   Overcast
1:53 PM 39.0 °F - 25.0 °F 57% 30.23 in 10.0 mi Calm Calm - N/A   Overcast
2:53 PM 37.9 °F 34.4 °F 27.0 °F 65% 30.22 in 10.0 mi ENE 4.6 mph - N/A   Overcast
3:53 PM 37.0 °F 34.5 °F 26.1 °F 65% 30.21 in 10.0 mi East 3.5 mph - N/A   Mostly Cloudy
4:53 PM 34.0 °F 31.0 °F 26.1 °F 73% 30.21 in 10.0 mi East 3.5 mph - N/A   Overcast
5:53 PM 33.1 °F - 25.0 °F 72% 30.21 in 10.0 mi Calm Calm - N/A   Clear
6:53 PM 28.9 °F - 26.1 °F 89% 30.20 in 10.0 mi Calm Calm - N/A   Clear
7:53 PM 28.0 °F - 25.0 °F 88% 30.18 in 10.0 mi Calm Calm - N/A   Clear
8:53 PM 26.1 °F - 24.1 °F 92% 30.18 in 9.0 mi Calm Calm - N/A   Clear
9:53 PM 26.1 °F - 23.0 °F 88% 30.16 in 8.0 mi Calm Calm - N/A   Clear
10:53 PM 26.1 °F - 21.9 °F 84% 30.14 in 8.0 mi Calm Calm - N/A   Mostly Cloudy
11:53 PM 26.1 °F - 21.9 °F 84% 30.12 in 7.0 mi Calm Calm - N/A   Scattered Clouds